Time,TemperatureF,DewpointF,PressureIn,WindDirection,WindDirectionDegrees,WindSpeedMPH,WindSpeedGustMPH,Humidity,HourlyPrecipIn,Conditions,Clouds,dailyrainin,SoftwareType,DateUTC
2013-10-20 00:07:00,54.1,-44.4,29.76,NE,45,4.2,-999.0,1,-99.99,,,0.00,Acu-Link.com,2013-10-20 05:07:00,
2013-10-20 00:22:00,53.8,-44.6,29.76,NNE,22,2.7,-999.0,1,-99.99,,,0.00,Acu-Link.com,2013-10-20 05:22:00,
2013-10-20 00:37:00,53.6,-44.7,29.76,North,0,3.2,-999.0,1,-99.99,,,0.00,Acu-Link.com,2013-10-20 05:37:00,
2013-10-20 00:52:00,53.4,-44.9,29.76,North,0,3.7,-999.0,1,-99.99,,,0.00,Acu-Link.com,2013-10-20 05:52:00,
2013-10-20 01:07:00,53.2,-45.0,29.76,NNE,22,3.2,-999.0,1,-99.99,,,0.00,Acu-Link.com,2013-10-20 06:07:00,
2013-10-20 01:23:00,52.9,-45.2,29.76,NNW,337,3.2,-999.0,1,-99.99,,,0.00,Acu-Link.com,2013-10-20 06:23:00,
2013-10-20 01:38:00,52.9,-45.2,29.75,NNE,22,2.2,-999.0,1,-99.99,,,0.00,Acu-Link.com,2013-10-20 06:38:00,
2013-10-20 01:53:00,52.9,-45.2,29.75,North,0,3.7,-999.0,1,-99.99,,,0.00,Acu-Link.com,2013-10-20 06:53:00,
2013-10-20 02:08:00,52.9,-45.2,29.76,NW,315,2.7,-999.0,1,-99.99,,,0.00,Acu-Link.com,2013-10-20 07:08:00,
2013-10-20 02:23:00,52.7,-45.3,29.76,NNW,337,2.2,-999.0,1,-99.99,,,0.00,Acu-Link.com,2013-10-20 07:23:00,
2013-10-20 02:38:00,52.3,-45.5,29.76,NNW,337,2.7,-999.0,1,-99.99,,,0.00,Acu-Link.com,2013-10-20 07:38:00,
2013-10-20 02:53:00,52.0,-45.7,29.75,NNE,22,2.2,-999.0,1,-99.99,,,0.00,Acu-Link.com,2013-10-20 07:53:00,
2013-10-20 03:09:00,51.8,-45.8,29.75,NNW,337,1.1,-999.0,1,-99.99,,,0.00,Acu-Link.com,2013-10-20 08:09:00,
2013-10-20 03:24:00,51.6,-46.0,29.75,NW,315,2.2,-999.0,1,-99.99,,,0.00,Acu-Link.com,2013-10-20 08:24:00,
2013-10-20 03:39:00,51.6,-46.0,29.75,NNW,337,1.7,-999.0,1,-99.99,,,0.00,Acu-Link.com,2013-10-20 08:39:00,
2013-10-20 03:54:00,51.4,-46.1,29.76,North,0,2.2,-999.0,1,-99.99,,,0.00,Acu-Link.com,2013-10-20 08:54:00,
2013-10-20 04:09:00,51.3,-46.2,29.76,NE,45,0.0,-999.0,1,-99.99,,,0.00,Acu-Link.com,2013-10-20 09:09:00,
2013-10-20 04:24:00,50.9,-46.4,29.76,NNW,337,2.2,-999.0,1,-99.99,,,0.00,Acu-Link.com,2013-10-20 09:24:00,
2013-10-20 04:40:00,50.4,-46.7,29.76,NE,45,0.0,-999.0,1,-99.99,,,0.00,Acu-Link.com,2013-10-20 09:40:00,
2013-10-20 04:55:00,50.2,-46.8,29.76,NNE,22,0.0,-999.0,1,-99.99,,,0.00,Acu-Link.com,2013-10-20 09:55:00,
2013-10-20 05:10:00,50.4,1.4,29.76,East,90,0.0,-999.0,13,-99.99,,,0.00,Acu-Link.com,2013-10-20 10:10:00,
2013-10-20 05:26:00,49.6,-47.2,29.76,NNW,337,0.0,-999.0,1,-99.99,,,0.00,Acu-Link.com,2013-10-20 10:26:00,
2013-10-20 05:41:00,49.3,-47.4,29.77,NW,315,0.0,-999.0,1,-99.99,,,0.00,Acu-Link.com,2013-10-20 10:41:00,
2013-10-20 05:56:00,48.9,-47.6,29.77,West,270,0.0,-999.0,1,-99.99,,,0.00,Acu-Link.com,2013-10-20 10:56:00,
2013-10-20 06:11:00,48.9,-47.6,29.78,NNE,22,0.0,-999.0,1,-99.99,,,0.00,Acu-Link.com,2013-10-20 11:11:00,
2013-10-20 06:27:00,48.7,-47.7,29.77,WNW,292,0.0,-999.0,1,-99.99,,,0.00,Acu-Link.com,2013-10-20 11:27:00,
2013-10-20 06:42:00,48.7,-47.7,29.78,WNW,292,0.0,-999.0,1,-99.99,,,0.00,Acu-Link.com,2013-10-20 11:42:00,
2013-10-20 06:58:00,48.0,-48.2,29.78,NNW,337,0.0,-999.0,1,-99.99,,,0.00,Acu-Link.com,2013-10-20 11:58:00,
2013-10-20 07:13:00,47.8,-48.3,29.79,NNW,337,0.0,-999.0,1,-99.99,,,0.00,Acu-Link.com,2013-10-20 12:13:00,
2013-10-20 07:28:00,47.8,-48.3,29.79,WNW,292,0.0,-999.0,1,-99.99,,,0.00,Acu-Link.com,2013-10-20 12:28:00,
2013-10-20 07:43:00,48.7,48.2,29.79,NNW,337,0.0,-999.0,98,-99.99,,,0.00,Acu-Link.com,2013-10-20 12:43:00,
2013-10-20 07:59:00,52.0,-45.7,29.80,NE,45,1.7,-999.0,1,-99.99,,,0.00,Acu-Link.com,2013-10-20 12:59:00,
2013-10-20 08:14:00,55.2,-43.8,29.80,NE,45,2.7,-999.0,1,-99.99,,,0.00,Acu-Link.com,2013-10-20 13:14:00,
2013-10-20 08:29:00,56.7,-42.9,29.81,NE,45,2.7,-999.0,1,-99.99,,,0.00,Acu-Link.com,2013-10-20 13:29:00,
2013-10-20 08:44:00,59.0,-41.5,29.81,NE,45,4.7,-999.0,1,-99.99,,,0.00,Acu-Link.com,2013-10-20 13:44:00,
2013-10-20 08:59:00,61.7,-39.8,29.81,East,90,4.7,-999.0,1,-99.99,,,0.00,Acu-Link.com,2013-10-20 13:59:00,
2013-10-20 09:14:00,62.2,-39.5,29.81,WNW,292,4.7,-999.0,1,-99.99,,,0.00,Acu-Link.com,2013-10-20 14:14:00,
2013-10-20 09:29:00,62.8,-39.2,29.81,NE,45,4.2,-999.0,1,-99.99,,,0.00,Acu-Link.com,2013-10-20 14:29:00,
2013-10-20 09:45:00,63.5,-38.7,29.81,NE,45,4.7,-999.0,1,-99.99,,,0.00,Acu-Link.com,2013-10-20 14:45:00,
2013-10-20 10:00:00,62.4,-39.4,29.81,NE,45,4.2,-999.0,1,-99.99,,,0.00,Acu-Link.com,2013-10-20 15:00:00,
2013-10-20 10:15:00,64.4,-38.2,29.81,ENE,67,4.7,-999.0,1,-99.99,,,0.00,Acu-Link.com,2013-10-20 15:15:00,
2013-10-20 10:30:00,66.9,-36.7,29.81,NNE,22,4.2,-999.0,1,-99.99,,,0.00,Acu-Link.com,2013-10-20 15:30:00,
2013-10-20 10:46:00,67.8,-36.1,29.80,NE,45,3.2,-999.0,1,-99.99,,,0.00,Acu-Link.com,2013-10-20 15:46:00,
2013-10-20 11:01:00,67.8,-36.1,29.80,NNE,22,4.7,-999.0,1,-99.99,,,0.00,Acu-Link.com,2013-10-20 16:01:00,
2013-10-20 11:17:00,70.7,-34.4,29.79,NNE,22,4.7,-999.0,1,-99.99,,,0.00,Acu-Link.com,2013-10-20 16:17:00,
2013-10-20 11:32:00,72.1,-33.6,29.79,NNE,22,2.7,-999.0,1,-99.99,,,0.00,Acu-Link.com,2013-10-20 16:32:00,
2013-10-20 11:47:00,73.8,-32.5,29.78,NNW,337,3.2,-999.0,1,-99.99,,,0.00,Acu-Link.com,2013-10-20 16:47:00,
2013-10-20 12:02:00,74.8,-31.9,29.78,ENE,67,3.7,-999.0,1,-99.99,,,0.00,Acu-Link.com,2013-10-20 17:02:00,
2013-10-20 12:17:00,75.9,-31.3,29.77,NNE,22,4.7,-999.0,1,-99.99,,,0.00,Acu-Link.com,2013-10-20 17:17:00,
2013-10-20 12:32:00,75.4,-31.6,29.77,NW,315,1.7,-999.0,1,-99.99,,,0.00,Acu-Link.com,2013-10-20 17:32:00,
2013-10-20 12:47:00,75.7,-31.4,29.77,WSW,247,3.2,-999.0,1,-99.99,,,0.00,Acu-Link.com,2013-10-20 17:47:00,
2013-10-20 13:02:00,77.7,-30.2,29.76,ESE,112,2.7,-999.0,1,-99.99,,,0.00,Acu-Link.com,2013-10-20 18:02:00,
2013-10-20 13:18:00,77.0,-30.6,29.75,NE,45,3.7,-999.0,1,-99.99,,,0.00,Acu-Link.com,2013-10-20 18:18:00,
2013-10-20 13:33:00,76.6,-30.9,29.73,WSW,247,2.7,-999.0,1,-99.99,,,0.00,Acu-Link.com,2013-10-20 18:33:00,
2013-10-20 13:48:00,78.8,-29.6,29.72,North,0,2.7,-999.0,1,-99.99,,,0.00,Acu-Link.com,2013-10-20 18:48:00,
2013-10-20 14:03:00,77.5,-30.3,29.71,NNW,337,2.7,-999.0,1,-99.99,,,0.00,Acu-Link.com,2013-10-20 19:03:00,
2013-10-20 14:19:00,76.8,-30.7,29.71,NNE,22,5.3,-999.0,1,-99.99,,,0.00,Acu-Link.com,2013-10-20 19:19:00,
2013-10-20 14:34:00,77.5,-30.3,29.70,ESE,112,1.7,-999.0,1,-99.99,,,0.00,Acu-Link.com,2013-10-20 19:34:00,
2013-10-20 14:49:00,76.6,-30.9,29.70,NNW,337,4.2,-999.0,1,-99.99,,,0.00,Acu-Link.com,2013-10-20 19:49:00,
2013-10-20 15:04:00,77.4,-30.4,29.69,ESE,112,1.7,-999.0,1,-99.99,,,0.00,Acu-Link.com,2013-10-20 20:04:00,
2013-10-20 15:19:00,78.6,-29.7,29.69,WNW,292,0.0,-999.0,1,-99.99,,,0.00,Acu-Link.com,2013-10-20 20:19:00,
2013-10-20 15:35:00,79.0,-29.4,29.69,WNW,292,0.0,-999.0,1,-99.99,,,0.00,Acu-Link.com,2013-10-20 20:35:00,
2013-10-20 15:50:00,80.4,-28.6,29.69,NNE,22,4.7,-999.0,1,-99.99,,,0.00,Acu-Link.com,2013-10-20 20:50:00,
2013-10-20 16:05:00,79.9,-28.9,29.69,SSW,202,3.2,-999.0,1,-99.99,,,0.00,Acu-Link.com,2013-10-20 21:05:00,
2013-10-20 16:21:00,80.1,-28.8,29.69,NW,315,0.0,-999.0,1,-99.99,,,0.00,Acu-Link.com,2013-10-20 21:21:00,
2013-10-20 16:36:00,80.1,-28.8,29.69,South,180,1.7,-999.0,1,-99.99,,,0.00,Acu-Link.com,2013-10-20 21:36:00,
2013-10-20 16:51:00,80.1,-28.8,29.69,SSW,202,0.0,-999.0,1,-99.99,,,0.00,Acu-Link.com,2013-10-20 21:51:00,
2013-10-20 17:06:00,80.8,-28.4,29.68,NNE,22,3.2,-999.0,1,-99.99,,,0.00,Acu-Link.com,2013-10-20 22:06:00,
2013-10-20 17:21:00,79.2,-29.3,29.67,ESE,112,0.0,-999.0,1,-99.99,,,0.00,Acu-Link.com,2013-10-20 22:21:00,
2013-10-20 17:37:00,78.4,-29.8,29.67,NNE,22,0.0,-999.0,1,-99.99,,,0.00,Acu-Link.com,2013-10-20 22:37:00,
2013-10-20 17:52:00,76.1,-31.2,29.68,WSW,247,0.0,-999.0,1,-99.99,,,0.00,Acu-Link.com,2013-10-20 22:52:00,
2013-10-20 18:07:00,73.6,-32.7,29.68,SW,225,0.0,-999.0,1,-99.99,,,0.00,Acu-Link.com,2013-10-20 23:07:00,
2013-10-20 18:23:00,69.8,-34.9,29.68,WSW,247,0.0,-999.0,1,-99.99,,,0.00,Acu-Link.com,2013-10-20 23:23:00,
2013-10-20 18:38:00,65.8,-37.3,29.68,WNW,292,0.0,-999.0,1,-99.99,,,0.00,Acu-Link.com,2013-10-20 23:38:00,
2013-10-20 18:53:00,62.8,-39.2,29.68,West,270,0.0,-999.0,1,-99.99,,,0.00,Acu-Link.com,2013-10-20 23:53:00,
2013-10-20 19:09:00,61.0,-40.2,29.68,NW,315,0.0,-999.0,1,-99.99,,,0.00,Acu-Link.com,2013-10-21 00:09:00,
2013-10-20 19:24:00,59.5,-41.2,29.68,NW,315,0.0,-999.0,1,-99.99,,,0.00,Acu-Link.com,2013-10-21 00:24:00,
2013-10-20 19:39:00,58.5,-41.8,29.68,WSW,247,0.0,-999.0,1,-99.99,,,0.00,Acu-Link.com,2013-10-21 00:39:00,
2013-10-20 19:54:00,57.7,-42.3,29.69,NNW,337,1.1,-999.0,1,-99.99,,,0.00,Acu-Link.com,2013-10-21 00:54:00,
2013-10-20 20:10:00,57.0,-42.7,29.68,NW,315,0.0,-999.0,1,-99.99,,,0.00,Acu-Link.com,2013-10-21 01:10:00,
2013-10-20 20:25:00,56.3,-43.1,29.69,West,270,0.0,-999.0,1,-99.99,,,0.00,Acu-Link.com,2013-10-21 01:25:00,
2013-10-20 20:40:00,56.3,-43.1,29.68,WNW,292,0.0,-999.0,1,-99.99,,,0.00,Acu-Link.com,2013-10-21 01:40:00,
2013-10-20 20:56:00,55.6,-43.5,29.68,WNW,292,0.0,-999.0,1,-99.99,,,0.00,Acu-Link.com,2013-10-21 01:56:00,
2013-10-20 21:11:00,56.7,-42.9,29.68,WSW,247,0.0,-999.0,1,-99.99,,,0.00,Acu-Link.com,2013-10-21 02:11:00,
2013-10-20 21:26:00,55.9,-43.3,29.69,ESE,112,0.0,-999.0,1,-99.99,,,0.00,Acu-Link.com,2013-10-21 02:26:00,
2013-10-20 21:41:00,55.4,-43.7,29.69,NW,315,0.0,-999.0,1,-99.99,,,0.00,Acu-Link.com,2013-10-21 02:41:00,
2013-10-20 21:57:00,55.2,-43.8,29.69,ESE,112,0.0,-999.0,1,-99.99,,,0.00,Acu-Link.com,2013-10-21 02:57:00,
2013-10-20 22:12:00,55.0,-43.9,29.69,NW,315,0.0,-999.0,1,-99.99,,,0.00,Acu-Link.com,2013-10-21 03:12:00,
2013-10-20 22:27:00,54.7,-44.1,29.70,WNW,292,0.0,-999.0,1,-99.99,,,0.00,Acu-Link.com,2013-10-21 03:27:00,
2013-10-20 22:42:00,54.1,-44.4,29.70,West,270,0.0,-999.0,1,-99.99,,,0.00,Acu-Link.com,2013-10-21 03:42:00,
2013-10-20 22:57:00,54.3,-44.3,29.70,SW,225,0.0,-999.0,1,-99.99,,,0.00,Acu-Link.com,2013-10-21 03:57:00,
2013-10-20 23:13:00,54.0,-44.5,29.70,ESE,112,0.0,-999.0,1,-99.99,,,0.00,Acu-Link.com,2013-10-21 04:13:00,
2013-10-20 23:28:00,54.1,-44.4,29.69,West,270,0.0,-999.0,1,-99.99,,,0.00,Acu-Link.com,2013-10-21 04:28:00,
2013-10-20 23:43:00,54.0,-44.5,29.70,SSW,202,0.0,-999.0,1,-99.99,,,0.00,Acu-Link.com,2013-10-21 04:43:00,
2013-10-20 23:58:00,53.4,-44.9,29.70,WNW,292,0.0,-999.0,1,-99.99,,,0.00,Acu-Link.com,2013-10-21 04:58:00,